AFR594 LFPG-GQNO

Flight info

Callsign AFR594
Flight time N/A
Altitude 39000
Route LGL6L LGL UT176 TERPO DCT ERIGA DCT FUJTI DCT BAKUP DCT BATAX DCT TAKAV DCT ROLRO DCT SOLNA/N0481F400 L660 LAY Y601 KEMUL Y601 GUPEL GUPEL1V
Aircraft A359/H-SDE2E3GHIJ3J4J5LM1ORWXY/LB1D1

Departure

Time 2026-04-30 09:12
Airport Charles de Gaulle International Airport (LFPG)

Arrival

Time N/A
Airport Nouakchott–Oumtounsy International Airport (GQNO)
Time Latitude Longitude Altitude Speed Heading
2026-04-30 08:48 49.00265 2.58169 361 ft 0 kts 235°
2026-04-30 08:56 49.00256 2.58150 361 ft 0 kts 233°
2026-04-30 09:01 49.00260 2.58160 361 ft 3 kts 232°
2026-04-30 09:02 49.00286 2.58212 361 ft 3 kts 250°
2026-04-30 09:02 49.00289 2.58238 362 ft 3 kts 264°
2026-04-30 09:02 49.00294 2.58268 361 ft 3 kts 236°
2026-04-30 09:03 49.00308 2.58287 364 ft 3 kts 194°
2026-04-30 09:03 49.00328 2.58291 364 ft 3 kts 176°
2026-04-30 09:03 49.00337 2.58290 362 ft 0 kts 175°
2026-04-30 09:05 49.00333 2.58290 364 ft 2 kts 175°
2026-04-30 09:05 49.00289 2.58295 368 ft 10 kts 175°
2026-04-30 09:06 49.00207 2.58304 362 ft 13 kts 175°
2026-04-30 09:06 49.00111 2.58315 364 ft 15 kts 175°
2026-04-30 09:06 49.00023 2.58300 363 ft 13 kts 218°
2026-04-30 09:06 49.00004 2.58166 363 ft 14 kts 265°
2026-04-30 09:07 48.99995 2.58003 366 ft 17 kts 265°
2026-04-30 09:07 48.99984 2.57812 360 ft 19 kts 265°
2026-04-30 09:07 48.99972 2.57593 363 ft 22 kts 265°
2026-04-30 09:07 48.99960 2.57352 367 ft 24 kts 265°
2026-04-30 09:08 48.99947 2.57125 366 ft 22 kts 265°
2026-04-30 09:08 48.99934 2.56888 360 ft 24 kts 265°
2026-04-30 09:08 48.99922 2.56649 365 ft 22 kts 265°
2026-04-30 09:08 48.99909 2.56406 365 ft 24 kts 266°
2026-04-30 09:09 48.99897 2.56159 360 ft 20 kts 265°
2026-04-30 09:09 48.99891 2.55957 360 ft 18 kts 277°
2026-04-30 09:09 48.99894 2.55824 369 ft 9 kts 237°
2026-04-30 09:09 48.99836 2.55799 360 ft 10 kts 181°
2026-04-30 09:10 48.99761 2.55806 365 ft 12 kts 174°
2026-04-30 09:10 48.99673 2.55818 367 ft 14 kts 174°
2026-04-30 09:10 48.99605 2.55844 366 ft 8 kts 133°
2026-04-30 09:10 48.99603 2.55900 365 ft 0 kts 85°
2026-04-30 09:11 48.99604 2.55903 366 ft 4 kts 85°
2026-04-30 09:11 48.99619 2.56188 364 ft 59 kts 85°
2026-04-30 09:11 48.99671 2.57156 365 ft 123 kts 85°
2026-04-30 09:12 48.99759 2.58682 623 ft 154 kts 86°
2026-04-30 09:12 48.99854 2.60335 1321 ft 159 kts 87°
2026-04-30 09:12 48.99932 2.62033 2080 ft 165 kts 89°
2026-04-30 09:12 48.99988 2.63768 2801 ft 163 kts 91°
2026-04-30 09:13 49.00053 2.65490 3564 ft 161 kts 89°
2026-04-30 09:13 49.00156 2.67271 3988 ft 179 kts 88°
2026-04-30 09:13 49.00277 2.69257 4347 ft 195 kts 88°
2026-04-30 09:13 49.00404 2.71375 4841 ft 205 kts 88°
2026-04-30 09:14 49.00537 2.73658 5192 ft 229 kts 88°
2026-04-30 09:14 49.00673 2.76176 5703 ft 245 kts 88°
2026-04-30 09:14 49.00911 2.78770 6490 ft 252 kts 75°
2026-04-30 09:14 49.01842 2.81072 7237 ft 266 kts 47°
2026-04-30 09:15 49.03439 2.82529 8035 ft 280 kts 21°
2026-04-30 09:15 49.05403 2.82845 8888 ft 291 kts
2026-04-30 09:15 49.07429 2.82527 9652 ft 297 kts 353°
2026-04-30 09:15 49.09353 2.81302 10189 ft 304 kts 326°
2026-04-30 09:16 49.10800 2.78905 10831 ft 313 kts 300°
2026-04-30 09:16 49.11491 2.75768 11690 ft 314 kts 276°
2026-04-30 09:16 49.11581 2.72434 12581 ft 315 kts 268°
2026-04-30 09:16 49.11509 2.69074 13365 ft 321 kts 264°
2026-04-30 09:17 49.11355 2.65588 13786 ft 339 kts 264°
2026-04-30 09:17 49.11182 2.61903 14135 ft 357 kts 264°
2026-04-30 09:17 49.10997 2.58020 14473 ft 374 kts 264°
2026-04-30 09:17 49.10807 2.54018 14825 ft 389 kts 264°
2026-04-30 09:18 49.10608 2.49835 15363 ft 398 kts 264°
2026-04-30 09:18 49.10406 2.45578 15979 ft 404 kts 264°
2026-04-30 09:18 49.10201 2.41272 16641 ft 409 kts 264°
2026-04-30 09:18 49.09994 2.36916 17327 ft 413 kts 264°
2026-04-30 09:19 49.09783 2.32518 18018 ft 417 kts 264°
2026-04-30 09:19 49.09570 2.28077 18666 ft 422 kts 264°
2026-04-30 09:19 49.09353 2.23583 19232 ft 427 kts 264°
2026-04-30 09:19 49.09134 2.19035 19810 ft 432 kts 263°
2026-04-30 09:20 49.08910 2.14430 20377 ft 438 kts 264°
2026-04-30 09:20 49.08683 2.09768 21012 ft 442 kts 264°
2026-04-30 09:20 49.08458 2.05139 21629 ft 446 kts 264°
2026-04-30 09:20 49.08225 2.00388 22253 ft 450 kts 264°
2026-04-30 09:21 49.07990 1.95601 22871 ft 455 kts 264°
2026-04-30 09:21 49.07683 1.90767 23452 ft 458 kts 259°
2026-04-30 09:21 49.06974 1.86020 23975 ft 459 kts 252°
2026-04-30 09:21 49.06088 1.81341 24285 ft 460 kts 251°
2026-04-30 09:22 49.05153 1.76658 24542 ft 462 kts 250°
2026-04-30 09:22 49.04202 1.71968 24828 ft 463 kts 250°
2026-04-30 09:22 49.03241 1.67265 25129 ft 464 kts 250°
2026-04-30 09:22 49.02275 1.62566 25386 ft 466 kts 250°
2026-04-30 09:23 49.01315 1.57911 25663 ft 467 kts 249°
2026-04-30 09:23 49.00335 1.53172 25969 ft 468 kts 249°
2026-04-30 09:23 48.99353 1.48435 26258 ft 470 kts 249°
2026-04-30 09:23 48.98364 1.43680 26578 ft 471 kts 249°
2026-04-30 09:24 48.97371 1.38913 26884 ft 473 kts 249°
2026-04-30 09:24 48.96371 1.34131 27217 ft 475 kts 249°
2026-04-30 09:24 48.95367 1.29340 27589 ft 475 kts 250°
2026-04-30 09:24 48.94373 1.24603 28015 ft 475 kts 250°
2026-04-30 09:25 48.93365 1.19813 28385 ft 477 kts 250°
2026-04-30 09:25 48.92350 1.15001 28731 ft 479 kts 250°
2026-04-30 09:25 48.91328 1.10167 29084 ft 481 kts 250°
2026-04-30 09:25 48.90299 1.05312 29441 ft 483 kts 250°
2026-04-30 09:26 48.89264 1.00440 29818 ft 485 kts 250°
2026-04-30 09:26 48.88226 0.95566 30191 ft 486 kts 250°
2026-04-30 09:26 48.87179 0.90663 30496 ft 488 kts 250°
2026-04-30 09:26 48.86125 0.85736 30788 ft 491 kts 250°
2026-04-30 09:27 48.85065 0.80797 31114 ft 492 kts 250°
2026-04-30 09:27 48.84004 0.75862 31427 ft 493 kts 250°
2026-04-30 09:27 48.82944 0.70943 31615 ft 497 kts 250°
2026-04-30 09:27 48.81868 0.65967 31927 ft 498 kts 250°
2026-04-30 09:28 48.80782 0.60952 32188 ft 500 kts 250°
2026-04-30 09:28 48.79572 0.55999 32368 ft 502 kts 244°
2026-04-30 09:28 48.77915 0.51367 32666 ft 499 kts 234°
2026-04-30 09:28 48.75898 0.47092 33019 ft 497 kts 230°
2026-04-30 09:29 48.73716 0.43023 33351 ft 496 kts 228°
2026-04-30 09:29 48.71462 0.39076 33735 ft 495 kts 227°
2026-04-30 09:29 48.69180 0.35156 33969 ft 497 kts 227°
2026-04-30 09:29 48.66894 0.31230 34325 ft 495 kts 227°
2026-04-30 09:30 48.64628 0.27304 34675 ft 494 kts 226°
2026-04-30 09:30 48.62402 0.23422 34910 ft 494 kts 228°
2026-04-30 09:30 48.60166 0.19500 35321 ft 491 kts 227°
2026-04-30 09:30 48.57942 0.15579 35663 ft 490 kts 227°
2026-04-30 09:31 48.55734 0.11669 36039 ft 487 kts 228°
2026-04-30 09:31 48.53543 0.07768 36373 ft 487 kts 227°
2026-04-30 09:31 48.51353 0.03872 36679 ft 486 kts 227°
2026-04-30 09:31 48.49172 -0.00005 37024 ft 484 kts 227°
2026-04-30 09:32 48.47000 -0.03857 37447 ft 480 kts 228°
2026-04-30 09:32 48.44841 -0.07677 37848 ft 477 kts 228°
2026-04-30 09:32 48.42692 -0.11474 38210 ft 475 kts 228°
2026-04-30 09:32 48.40553 -0.15245 38589 ft 472 kts 228°
2026-04-30 09:33 48.38416 -0.19003 38805 ft 472 kts 228°
2026-04-30 09:33 48.36304 -0.22713 39009 ft 471 kts 228°
2026-04-30 09:33 48.32019 -0.30205 39096 ft 473 kts 227°
2026-04-30 09:34 48.28422 -0.36397 39084 ft 473 kts 227°
2026-04-30 09:34 48.24077 -0.43841 39082 ft 473 kts 227°
2026-04-30 09:35 48.19735 -0.51275 39078 ft 473 kts 227°
2026-04-30 09:35 48.15399 -0.58693 39076 ft 473 kts 227°
2026-04-30 09:36 48.11055 -0.66107 39075 ft 473 kts 227°
2026-04-30 09:36 48.06742 -0.73445 39074 ft 473 kts 227°
2026-04-30 09:37 48.02388 -0.80833 39075 ft 473 kts 227°
2026-04-30 09:37 47.98033 -0.88202 39076 ft 473 kts 227°
2026-04-30 09:38 47.93681 -0.95546 39069 ft 472 kts 227°
2026-04-30 09:38 47.89322 -1.02881 39061 ft 472 kts 227°
2026-04-30 09:39 47.84987 -1.10154 39062 ft 472 kts 227°
2026-04-30 09:39 47.80611 -1.17477 39061 ft 472 kts 227°
2026-04-30 09:40 47.76235 -1.24781 39058 ft 472 kts 227°
2026-04-30 09:40 47.71863 -1.32057 39056 ft 472 kts 227°
2026-04-30 09:41 47.67502 -1.39295 39050 ft 473 kts 227°
2026-04-30 09:41 47.63106 -1.46572 39051 ft 473 kts 227°
2026-04-30 09:42 47.58710 -1.53834 39044 ft 473 kts 227°
2026-04-30 09:42 47.54343 -1.61041 39045 ft 473 kts 227°
2026-04-30 09:43 47.49935 -1.68287 39042 ft 473 kts 226°
2026-04-30 09:43 47.45518 -1.75530 39036 ft 474 kts 226°
2026-04-30 09:44 47.41094 -1.82768 39038 ft 474 kts 226°
2026-04-30 09:44 47.36649 -1.89948 39021 ft 473 kts 224°
2026-04-30 09:45 47.31491 -1.95917 39023 ft 472 kts 212°
2026-04-30 09:45 47.25915 -2.01042 39022 ft 472 kts 210°
2026-04-30 09:46 47.20267 -2.06027 39021 ft 472 kts 210°
2026-04-30 09:46 47.14670 -2.10965 39023 ft 472 kts 210°
2026-04-30 09:47 47.09037 -2.15957 39031 ft 473 kts 210°
2026-04-30 09:47 47.03397 -2.20956 39032 ft 473 kts 210°
2026-04-30 09:48 46.97754 -2.25948 39031 ft 473 kts 210°
2026-04-30 09:48 46.92119 -2.30920 39036 ft 473 kts 210°
2026-04-30 09:49 46.86461 -2.35897 39037 ft 474 kts 210°
2026-04-30 09:49 46.80812 -2.40865 39037 ft 474 kts 210°
2026-04-30 09:50 46.75155 -2.45822 39042 ft 474 kts 210°
2026-04-30 09:50 46.69533 -2.50737 39042 ft 473 kts 210°
2026-04-30 09:51 46.63877 -2.55670 39042 ft 473 kts 210°
2026-04-30 09:51 46.58220 -2.60593 39039 ft 473 kts 210°
2026-04-30 09:52 46.52569 -2.65497 39039 ft 473 kts 210°
2026-04-30 09:52 46.46906 -2.70401 39040 ft 474 kts 210°
2026-04-30 09:53 46.41230 -2.75304 39037 ft 474 kts 210°
2026-04-30 09:53 46.35562 -2.80188 39034 ft 474 kts 210°
2026-04-30 09:54 46.29916 -2.85042 39034 ft 475 kts 210°
2026-04-30 09:54 46.24221 -2.89934 39032 ft 476 kts 210°
2026-04-30 09:55 46.18545 -2.94878 39031 ft 476 kts 211°
2026-04-30 09:55 46.12878 -2.99825 39031 ft 476 kts 211°
2026-04-30 09:56 46.07242 -3.04721 39032 ft 476 kts 211°
2026-04-30 09:56 46.01548 -3.09648 39031 ft 477 kts 211°
2026-04-30 09:57 45.95861 -3.14555 39034 ft 477 kts 210°
2026-04-30 09:57 45.90163 -3.19459 39034 ft 476 kts 210°
2026-04-30 09:58 45.84481 -3.24339 39037 ft 476 kts 210°
2026-04-30 09:58 45.78828 -3.29182 39037 ft 476 kts 210°
2026-04-30 09:59 45.67450 -3.38893 39040 ft 475 kts 211°
2026-04-30 10:00 45.58934 -3.46133 39047 ft 474 kts 211°
2026-04-30 10:01 45.50440 -3.53326 39045 ft 474 kts 211°
2026-04-30 10:02 45.41921 -3.60517 39048 ft 474 kts 211°
2026-04-30 10:02 45.36232 -3.65305 39051 ft 474 kts 211°
2026-04-30 10:03 45.30545 -3.70079 39052 ft 474 kts 211°
2026-04-30 10:03 45.24893 -3.74812 39056 ft 475 kts 211°
2026-04-30 10:04 45.19192 -3.79577 39059 ft 475 kts 211°
2026-04-30 10:04 45.13491 -3.84330 39065 ft 475 kts 211°
2026-04-30 10:05 45.07796 -3.89065 39058 ft 474 kts 211°
2026-04-30 10:05 45.02110 -3.93783 39059 ft 473 kts 211°
2026-04-30 10:06 44.96459 -3.98461 39062 ft 473 kts 211°
2026-04-30 10:06 44.90774 -4.03157 39062 ft 473 kts 211°
2026-04-30 10:07 44.85088 -4.07842 39067 ft 473 kts 211°
2026-04-30 10:07 44.79404 -4.12515 39067 ft 473 kts 211°
2026-04-30 10:08 44.73715 -4.17181 39067 ft 473 kts 211°
2026-04-30 10:08 44.68024 -4.21839 39070 ft 473 kts 211°
2026-04-30 10:09 44.62367 -4.26458 39069 ft 473 kts 211°
2026-04-30 10:09 44.56674 -4.31095 39075 ft 473 kts 211°
2026-04-30 10:10 44.50970 -4.35730 39070 ft 473 kts 212°
2026-04-30 10:10 44.45273 -4.40350 39075 ft 472 kts 212°
2026-04-30 10:11 44.39584 -4.44961 39075 ft 472 kts 212°
2026-04-30 10:11 44.33985 -4.49681 39075 ft 472 kts 213°
2026-04-30 10:12 44.28380 -4.54476 39075 ft 472 kts 213°
2026-04-30 10:12 44.22764 -4.59246 39075 ft 472 kts 213°
2026-04-30 10:13 44.17130 -4.63998 39078 ft 473 kts 213°
2026-04-30 10:13 44.11536 -4.68696 39079 ft 473 kts 213°
2026-04-30 10:14 44.05871 -4.73442 39080 ft 472 kts 213°
2026-04-30 10:14 43.97461 -4.80474 39080 ft 472 kts 213°
2026-04-30 10:15 43.91833 -4.85166 39082 ft 472 kts 213°
2026-04-30 10:15 43.86203 -4.89848 39083 ft 470 kts 213°
2026-04-30 10:16 43.80586 -4.94510 39079 ft 470 kts 213°
2026-04-30 10:17 43.72214 -5.01438 39080 ft 467 kts 213°
2026-04-30 10:17 43.63863 -5.08327 39080 ft 465 kts 213°
2026-04-30 10:18 43.58303 -5.12902 39080 ft 465 kts 213°
2026-04-30 10:19 43.49964 -5.19745 39068 ft 465 kts 213°
2026-04-30 10:19 43.44406 -5.24292 39071 ft 464 kts 213°
2026-04-30 10:20 43.39788 -5.28063 39071 ft 464 kts 213°
2026-04-30 10:20 43.31456 -5.34851 39063 ft 464 kts 213°
2026-04-30 10:21 43.25905 -5.39360 39057 ft 462 kts 214°
2026-04-30 10:21 43.20409 -5.43814 39075 ft 461 kts 214°
2026-04-30 10:22 43.14882 -5.48286 39059 ft 461 kts 214°
2026-04-30 10:22 43.09350 -5.52751 39049 ft 461 kts 214°
2026-04-30 10:23 43.03816 -5.57210 39067 ft 460 kts 214°
2026-04-30 10:23 42.98294 -5.61649 39065 ft 460 kts 214°
2026-04-30 10:24 42.92769 -5.66082 39047 ft 460 kts 214°
2026-04-30 10:24 42.87279 -5.70477 39062 ft 460 kts 214°
2026-04-30 10:25 42.81754 -5.74889 39082 ft 459 kts 214°
2026-04-30 10:25 42.76236 -5.79287 39077 ft 459 kts 214°
2026-04-30 10:26 42.70716 -5.83679 39092 ft 459 kts 214°
2026-04-30 10:26 42.65199 -5.88058 39093 ft 459 kts 213°
2026-04-30 10:27 42.59710 -5.92407 39087 ft 459 kts 213°
2026-04-30 10:27 42.54195 -5.96766 39081 ft 459 kts 213°
2026-04-30 10:28 42.48661 -6.01131 39078 ft 459 kts 213°
2026-04-30 10:28 42.43135 -6.05482 39063 ft 459 kts 213°
2026-04-30 10:29 42.37651 -6.09791 39057 ft 458 kts 213°
2026-04-30 10:29 42.32135 -6.14116 39059 ft 457 kts 213°
2026-04-30 10:30 42.26629 -6.18425 39063 ft 457 kts 213°
2026-04-30 10:30 42.21122 -6.22724 39063 ft 456 kts 213°
2026-04-30 10:31 42.15636 -6.26999 39062 ft 455 kts 213°
2026-04-30 10:31 42.10151 -6.31265 39067 ft 455 kts 213°
2026-04-30 10:32 42.04672 -6.35518 39063 ft 455 kts 213°
2026-04-30 10:32 41.99189 -6.39766 39068 ft 454 kts 213°
2026-04-30 10:33 41.93744 -6.43975 39069 ft 454 kts 213°
2026-04-30 10:33 41.88263 -6.48204 39070 ft 454 kts 213°
2026-04-30 10:34 41.82794 -6.52413 39078 ft 453 kts 213°
2026-04-30 10:34 41.77328 -6.56614 39071 ft 452 kts 213°
2026-04-30 10:35 41.71868 -6.60793 39071 ft 451 kts 212°
2026-04-30 10:35 41.66118 -6.64266 39083 ft 454 kts 205°
2026-04-30 10:36 41.60239 -6.67376 39080 ft 455 kts 204°
2026-04-30 10:36 41.54339 -6.70424 39082 ft 454 kts 204°
2026-04-30 10:37 41.48476 -6.73456 39087 ft 454 kts 204°
2026-04-30 10:37 41.42579 -6.76515 39087 ft 454 kts 204°
2026-04-30 10:38 41.36693 -6.79568 39088 ft 454 kts 204°
2026-04-30 10:38 41.30845 -6.82596 39087 ft 453 kts 204°
2026-04-30 10:39 41.24967 -6.85632 39088 ft 452 kts 204°
2026-04-30 10:39 41.19095 -6.88660 39087 ft 452 kts 204°
2026-04-30 10:40 41.13234 -6.91676 39082 ft 452 kts 204°
2026-04-30 10:40 41.07370 -6.94687 39088 ft 451 kts 204°
2026-04-30 10:41 41.01551 -6.97670 39092 ft 451 kts 204°
2026-04-30 10:41 40.95694 -7.00667 39091 ft 451 kts 204°
2026-04-30 10:42 40.89831 -7.03661 39088 ft 451 kts 203°
2026-04-30 10:42 40.83978 -7.06644 39091 ft 450 kts 203°
2026-04-30 10:43 40.78124 -7.09621 39094 ft 450 kts 203°
2026-04-30 10:43 40.72276 -7.12591 39094 ft 450 kts 203°
2026-04-30 10:44 40.66455 -7.15541 39109 ft 450 kts 203°
2026-04-30 10:44 40.60594 -7.18506 39108 ft 450 kts 203°
2026-04-30 10:45 40.54744 -7.21459 39104 ft 450 kts 203°
2026-04-30 10:45 40.48890 -7.24410 39109 ft 450 kts 203°
2026-04-30 10:46 40.43067 -7.27340 39097 ft 450 kts 203°
2026-04-30 10:46 40.37218 -7.30276 39099 ft 450 kts 203°
2026-04-30 10:47 40.31347 -7.33217 39118 ft 450 kts 203°
2026-04-30 10:47 40.25481 -7.36151 39104 ft 450 kts 203°
2026-04-30 10:48 40.19622 -7.39077 39102 ft 450 kts 202°
2026-04-30 10:48 40.13772 -7.41992 39104 ft 450 kts 202°
2026-04-30 10:49 40.07952 -7.44887 39100 ft 450 kts 202°
2026-04-30 10:49 40.02095 -7.47795 39100 ft 450 kts 202°
2026-04-30 10:50 39.96238 -7.50698 39111 ft 449 kts 202°
2026-04-30 10:50 39.90424 -7.53573 39110 ft 449 kts 202°
2026-04-30 10:51 39.84541 -7.56479 39112 ft 449 kts 202°
2026-04-30 10:51 39.78728 -7.59344 39112 ft 449 kts 202°
2026-04-30 10:52 39.72865 -7.62230 39117 ft 450 kts 201°
2026-04-30 10:52 39.66995 -7.65112 39114 ft 450 kts 201°
2026-04-30 10:53 39.61128 -7.67987 39115 ft 451 kts 201°
2026-04-30 10:53 39.55261 -7.70858 39117 ft 451 kts 201°
2026-04-30 10:54 39.49419 -7.73712 39116 ft 451 kts 201°
2026-04-30 10:54 39.43541 -7.76577 39110 ft 451 kts 201°
2026-04-30 10:55 39.37653 -7.79443 39113 ft 452 kts 201°
2026-04-30 10:55 39.31768 -7.82302 39114 ft 452 kts 201°
2026-04-30 10:56 39.25880 -7.85157 39109 ft 452 kts 201°
2026-04-30 10:56 39.19983 -7.88011 39114 ft 452 kts 200°
2026-04-30 10:57 39.14088 -7.90860 39111 ft 452 kts 200°
2026-04-30 10:57 39.08234 -7.93683 39106 ft 452 kts 200°
2026-04-30 10:58 39.02337 -7.96522 39109 ft 453 kts 200°
2026-04-30 10:58 38.96425 -7.99364 39110 ft 453 kts 200°
2026-04-30 10:59 38.90521 -8.02196 39111 ft 453 kts 200°
2026-04-30 10:59 38.84612 -8.05026 39111 ft 453 kts 200°
2026-04-30 11:00 38.78731 -8.07837 39112 ft 453 kts 200°
2026-04-30 11:00 38.72811 -8.10662 39110 ft 453 kts 200°
2026-04-30 11:01 38.66894 -8.13481 39108 ft 453 kts 200°
2026-04-30 11:01 38.60977 -8.16294 39107 ft 454 kts 200°
2026-04-30 11:02 38.55052 -8.19106 39110 ft 454 kts 200°
2026-04-30 11:02 38.49117 -8.21918 39108 ft 455 kts 200°
2026-04-30 11:03 38.43185 -8.24724 39107 ft 455 kts 200°
2026-04-30 11:04 38.34312 -8.28912 39109 ft 455 kts 200°
2026-04-30 11:04 38.28360 -8.31715 39111 ft 455 kts 200°
2026-04-30 11:05 38.23414 -8.34040 39110 ft 455 kts 200°